• MPC Preparation (Info)

  • MPEC 2023-S46 : 2023 SE

    The following Minor Planet Electronic Circular may be linked-to from your own Web pages, but must not otherwise be redistributed electronically.

    A form allowing access to any MPEC is at the bottom of this page.


    Read MPEC 2023-S45 Read MPEC 2023-S47


    M.P.E.C. 2023-S46                            Issued 2023 September 17, 22:43 UT
    
         The Minor Planet Electronic Circulars contain information on unusual
             minor planets, routine data on comets and natural satellites,
             and occasional editorial announcements.  They are published
        on behalf of Division F of the International Astronomical Union by the
              Minor Planet Center, Smithsonian Astrophysical Observatory,
                              Cambridge, MA 02138, U.S.A.
    			  
                 Prepared using the Tamkin Foundation Computer Network
    
                                  MPC@CFA.HARVARD.EDU
                URL https://www.minorplanetcenter.net/    ISSN 1523-6714
    
                                     2023 SE                                 
    
    
    Observations:
         K23S00E* C2023 09 16.28319620 59 42.109+00 32 31.96         19.72wXES046F52
         K23S00E  C2023 09 16.29602321 00 11.288+00 30 36.35         19.80wXES046F52
         K23S00E  C2023 09 16.30888221 00 40.381+00 28 40.85         19.79wXES046F52
         K23S00E  C2023 09 16.32180621 01 09.422+00 26 45.54         19.82wXES046F52
         K23S00E  C2023 09 16.38939621 03 39.524+00 16 50.04         19.31GVES046F51
         K23S00E  C2023 09 16.39003921 03 40.987+00 16 44.10         19.63GVES046F51
         K23S00E 1C2023 09 16.77487321 17 40.360-00 37 13.20               VES046246
         K23S00E 1C2023 09 16.77515721 17 40.900-00 37 15.80               VES046246
         K23S00E 1C2023 09 16.77572421 17 42.040-00 37 19.70               VES046246
         K23S00E 1C2023 09 16.83325 21 19 33.02 -00 44 37.0          19.7 VXES046033
         K23S00E 1C2023 09 16.83372 21 19 33.91 -00 44 40.4          19.8 VXES046033
         K23S00E 1C2023 09 16.83419 21 19 34.81 -00 44 44.4          20.0 VXES046033
         K23S00E 1C2023 09 16.83483 21 19 36.03 -00 44 48.8          20.2 VXES046033
         K23S00E KC2023 09 16.84355721 19 52.39 -00 45 38.3          19.3 GXES046595
         K23S00E KC2023 09 16.85388021 20 11.82 -00 46 54.4          20.0 GXES046595
         K23S00E KC2023 09 16.87843121 20 57.81 -00 49 54.7                XES046595
         K23S00E KC2023 09 17.10858621 28 15.08 -01 16 16.5          19.7 GXES046858
         K23S00E KC2023 09 17.11251221 28 21.85 -01 16 42.9          19.7 GXES046858
         K23S00E KC2023 09 17.11748621 28 30.40 -01 17 17.1          19.6 GXES046858
         K23S00E 3C2023 09 17.22805621 31 47.279-01 28 30.36         20.00GVES046T14
         K23S00E 3C2023 09 17.22917321 31 49.124-01 28 37.64         19.96GVES046T14
         K23S00E 3C2023 09 17.23033521 31 51.041-01 28 45.20         19.97GVES046T14
         K23S00E KB2023 09 17.81160 21 46 53.28 -02 26 49.5          19.6 GXES046M45
         K23S00E 0B2023 09 17.81810321 47 04.721-02 23 26.97         19.9 VZES046M49
         K23S00E 0B2023 09 17.82209521 47 10.114-02 23 48.60         19.9 VZES046M49
         K23S00E KB2023 09 17.82223 21 47 07.70 -02 27 45.4          19.6 GXES046M45
         K23S00E KC2023 09 17.82479 21 47 13.78 -02 27 54.3          19.7 GVES046104
         K23S00E 0B2023 09 17.82607621 47 15.446-02 24 09.13         19.7 VZES046M49
         K23S00E KB2023 09 17.83272 21 47 21.86 -02 28 40.3          19.8 GXES046M45
         K23S00E KC2023 09 17.84870 21 47 46.02 -02 29 59.0                VES046104
         K23S00E KC2023 09 17.86568721 48 08.24 -02 31 29.8          19.9 GVES046L01
         K23S00E IC2023 09 17.86790921 48 11.16 -02 31 41.2          20.2 GVES046L01
         K23S00E KC2023 09 17.87013121 48 14.15 -02 31 53.2          19.9 GVES046L01
    
    Observer details:
    033 Karl Schwarzschild Observatory, Tautenburg.  Observers S. Melnikov, C.
        Hoegner, F. Ludwig, M. Hartmann, B. Stecklum.  Measurer B. Stecklum.
        1.34-m f/3 Schmidt + CCD.
    104 San Marcello Pistoiese.  Observers P. Bacci, M. Maestripieri.  Measurer P.
        Bacci.  0.60-m f/4.0 reflector + CCD.
    246 Klet Observatory-KLENOT.  Observers M. Tichy, J. Ticha, M. Janda, M.
        Honkova.  Measurer M. Tichy.  1.06-m f/2.7 Reflector + 2048x2048 CCD.
    595 Farra d'Isonzo.  Observers L. Camauli, P. D. Camauli, E. Pettarin.
        Measurer E. Pettarin.  0.61-m f/4.5 reflector + CCD.
    858 Tebbutt Observatory, Edgewood.  Observer F. B. Zoltowski.  0.51-m f/8.1
        Schmidt-Cassegrain + CCD.
    F51 Pan-STARRS 1, Haleakala.  Observers J. Bulger, K. Chambers, T. Lowe, P.
        Minguez, A. Schultz, I. Smith.  Measurers S. Chastel, J. Fairlamb, M.
        Huber, Y. Ramanjooloo, R. Wainscoat, R. Weryk.  1.8-m Ritchey-Chretien +
        CCD.
    F52 Pan-STARRS 2, Haleakala.  Observers J. Bulger, T. Lowe, P. Minguez, A.
        Schultz, I. Smith.  Measurers K. Chambers, T. de Boer, J. Bulger, J.
        Fairlamb, H. Gao, M. Huber, C.-C. Lin, T. Lowe, E. Magnier, P. Minguez, Y.
        Ramanjooloo, A. Schultz, I. Smith, R. Wainscoat, R. Weryk.  1.8-m Ritchey-
        Chretien + CCD.
    L01 Visnjan Observatory, Tican.  Observers K. Korlevic, G. Kervina.  Measurer
        K. Korlevic.  1.0-m f/2.9 reflector + CCD.
    M45 Starhopper Observatory, Sfantu Gheorghe.  Observer F. Ursache.  0.41-m
        f/7.5 reflector + CMO.
    M49 IAS Remote Observatory, Hakos.  Observers D. Husar, M. Junius.  Measurer
        D. Husar.  0.25-m f/4.5 reflector + CMO.
    T14 Canada-France-Hawaii Telescope, Maunakea.  Observers R. Wainscoat, H.
        Januszewski, H. Flewelling.  Measurers R. Weryk, R. Wainscoat.  3.6-m
        Canada-France-Hawaii Telescope + CCD.
    
    Orbital elements:
    2023 SE                                                  Earth MOID = 0.0128 AU
    Epoch 2023 Sept. 13.0 TT = JDT 2460200.5                Veres                   
    M  31.21109              (2000.0)            P               Q                  
    n   0.59473509     Peri.   93.55439     +0.04537391     +0.99896938             
    a   1.4004051      Node   179.04384     -0.94233767     +0.04319394             
    e   0.4501145      Incl.    4.05786     -0.33157341     +0.01394522             
    P   1.66           H   25.75          G   0.15           U   8                  
    Residuals in seconds of arc
    230916 F52  0.1-  0.0     230916 033  0.4+  0.3-    230917 M45  0.9+  0.1-
    230916 F52  0.3+  0.0     230916 033  0.4+  0.1+    230917 M49  0.4-  0.4-
    230916 F52  0.5+  0.1-    230916 595  0.0   0.6+    230917 M49  0.3+  0.8-
    230916 F52  0.1-  0.1+    230916 595  0.4-  0.7+    230917 M45  0.7+  0.0
    230916 F51  0.5-  0.4+    230916 595  0.6-  0.7+    230917 104  0.2+  0.4-
    230916 F51  0.2+  0.0     230917 858  0.4-  0.5+    230917 M49  0.4+  0.2-
    230916 246  0.1+  0.3-    230917 858  0.1-  0.6+    230917 M45  0.2+  0.1+
    230916 246  0.1-  0.8-    230917 858  0.0   0.1-    230917 104  0.2-  0.1+
    230916 246  0.4+  0.4-    230917 T14  0.0   0.0     230917 L01  0.2+  0.8+
    230916 033  0.4+  0.2+    230917 T14  0.0   0.0     230917 L01  0.5-  0.9+
    230916 033  0.3+  0.2+    230917 T14  0.0   0.0     230917 L01  0.1-  0.4+
    
    Ephemeris:
    2023 SE                  a,e,i = 1.40, 0.45, 4                   q = 0.7701
    Date    TT    R. A. (2000) Decl.     Delta      r    Elong.  Phase     V
    2023 08 18    12 09 44.3 +10 33 05   0.2186  0.8426    34.9   136.5    28.5
    ...
    2023 09 02    12 50 36.6 +11 46 00   0.09329 0.9312    31.8   145.2    28.0
    ...
    2023 09 10    14 36 30.3 +14 05 25   0.03521 0.9856    51.3   127.1    23.9
    ...
    2023 09 16    20 47 45.9 +01 19 05   0.02983 1.0282   138.6    40.3    19.8
    2023 09 17    21 24 48.1 -01 01 20   0.03554 1.0354   147.1    31.8    19.9
    2023 09 18    21 51 10.0 -02 40 11   0.04197 1.0426   152.8    26.1    20.1
    ...
    2023 09 24    22 58 33.0 -06 33 37   0.08638 1.0863   163.0    15.7    21.5
    ...
    2023 10 02    23 25 01.3 -07 40 24   0.1514  1.1448   160.4    17.1    22.8
    ...
    2023 10 17    23 44 37.1 -07 31 16   0.2866  1.2533   150.0    23.4    24.6
    
    M. P. C. Staff               (C) Copyright 2023 MPC           M.P.E.C. 2023-S46
    


    Read MPEC 2023-S45 Read MPEC 2023-S47


    MPEC number:

    Enter an MPEC number in one of the following forms:

    • 1997-B01 (the full form)
    • J97B01 (the packed version of the full form)
    • B01 (the abbreviated form)